This is the latest recevied weather packets stored in our database for station/object KD4EG. If no packets are shown the sender has not sent any weather packets the latest 10 day(s).
| Time | Temp. | Humidity | Pressure | Rain* | Wind** | Luminosity | Snow |
|---|---|---|---|---|---|---|---|
| 1788450986 | 32.78° C | 58% | 1021.2 hPa | 0 mm | - | 719 W/m² | - |
| 1788450681 | 32.78° C | 58% | 1021.2 hPa | 0 mm | - | 697 W/m² | - |
| 1788450377 | 33.89° C | 57% | 1021.3 hPa | 0 mm | - | 715 W/m² | - |
| 1788450073 | 32.78° C | 59% | 1021.3 hPa | 0 mm | - | 736 W/m² | - |
| 1788449769 | 32.78° C | 60% | 1021.2 hPa | 0 mm | - | 757 W/m² | - |
| 1788449464 | 33.33° C | 59% | 1021.4 hPa | 0 mm | - | 753 W/m² | - |
| 1788449160 | 32.22° C | 61% | 1021.2 hPa | 0 mm | - | 715 W/m² | - |
| 1788448856 | 32.78° C | 60% | 1021.1 hPa | 0 mm | - | 678 W/m² | - |
| 1788448555 | 32.78° C | 60% | 1021.4 hPa | 0 mm | - | 661 W/m² | - |
| 1788448251 | 32.22° C | 62% | 1021.2 hPa | 0 mm | - | 720 W/m² | - |
| 1788447944 | 31.67° C | 63% | 1021.1 hPa | 0 mm | - | 672 W/m² | - |
| 1788447640 | 31.67° C | 64% | 1021.5 hPa | 0 mm | - | 569 W/m² | - |
| 1788447334 | 31.67° C | 63% | 1021.4 hPa | 0 mm | - | 589 W/m² | - |
| 1788447029 | 31.67° C | 64% | 1021.5 hPa | 0 mm | - | 634 W/m² | - |
| 1788446728 | 31.11° C | 65% | 1021.5 hPa | 0 mm | - | 551 W/m² | - |
| 1788446424 | 30.56° C | 67% | 1021.3 hPa | 0 mm | - | 561 W/m² | - |
| 1788446120 | 30.56° C | 67% | 1021.3 hPa | 0 mm | - | 528 W/m² | - |
| 1788445816 | 30° C | 68% | 1021.4 hPa | 0 mm | - | 513 W/m² | - |
| 1788445511 | 30° C | 69% | 1021.5 hPa | 0 mm | - | 482 W/m² | - |
| 1788445208 | 30° C | 69% | 1021.2 hPa | 0 mm | - | 429 W/m² | - |
| 1788444903 | 29.44° C | 70% | 1021.4 hPa | 0 mm | - | 481 W/m² | - |
| 1788444598 | 28.89° C | 71% | 1021.4 hPa | 0 mm | - | 510 W/m² | - |
| 1788444294 | 28.89° C | 71% | 1021.6 hPa | 0 mm | - | 450 W/m² | - |
| 1788443989 | 28.89° C | 72% | 1021.6 hPa | 0 mm | - | 416 W/m² | - |
| 1788443685 | 28.33° C | 73% | 1021.4 hPa | 0 mm | - | 403 W/m² | - |
* Rain latest hour (hover to see other rain measurements)
** Current wind speed in m/s (hover to see current wind gust speed)